Location: Bergnershof
(48.9468°N, 10.9431°E)
Time: 05:00:39
(UTC+00:00)

Cosmos 2219 Rocket - Pass Details

Date: 03 March 2021
Orbit: 827 x 848 km, 71.0° (Epoch: 11 April)

Event Time Altitude Azimuth Distance (km) Brightness Sun altitude
Rises 17:43:27 0° 147° (SSE) 3,356 5.0 -7.4°
Reaches altitude 10° 17:47:23 10° 119° (ESE) 2,432 4.1 -8.1°
Maximum altitude 17:49:37 13° 96° (E) 2,263 3.8 -8.5°
Drops below altitude 10° 17:51:51 10° 72° (ENE) 2,444 4.0 -8.8°
Enters shadow 17:53:55 - 55° (NE) 2,867 4.5 -9.2°
Exits shadow 17:55:39 - 45° (NE) 3,343 4.9 -9.4°
Sets 17:55:49 0° 44° (NE) 3,389 4.9 -9.5°
